Change the Weather History Date:

Friday, October 18, 2013

  Actual Average Record
Temperature  
Mean Temperature 58 °F 58 °F  
Max Temperature 77 °F 74 °F 90 °F (2012)
Min Temperature 39 °F 43 °F 37 °F (1998)
Degree Days  
Heating Degree Days 7    
Month to date heating degree days 110  
Since 1 July heating degree days 174  
Cooling Degree Days 0    
Month to date cooling degree days 4  
Year to date cooling degree days 303  
Growing Degree Days 9 (Base 50)    
Moisture  
Dew Point 43 °F    
Average Humidity 63    
Maximum Humidity 100    
Minimum Humidity 26    
Precipitation  
Precipitation 0.00 in - 0.26 in (1920)
Month to date precipitation 0.00  
Year to date precipitation 2.81  
Since 1 July precipitation 0.84  
Sea Level Pressure  
Sea Level Pressure 29.99 in    
Wind  
Wind Speed 3 mph (South)    
Max Wind Speed 9 mph    
Max Gust Speed 16 mph    
Visibility 10 miles    
Events      
T = Trace of Precipitation, MM = Missing Value Source: NWS Daily Summary

Daily Weather History Graph

Daily Weather History Graph

Search for Another Location

Airport or City:

Trip Planner

Search our weather history database for the weather conditions in past years. The results will help you decide how hot, cold, wet, or windy it might be!

Date:

Astronomy

Oct. 18, 2013 Rise Set
Actual Time 7:21 AM PDT 6:26 PM PDT
Civil Twilight 6:54 AM PDT 6:53 PM PDT
Nautical Twilight 6:23 AM PDT 7:23 PM PDT
Astronomical Twilight 5:53 AM PDT 7:54 PM PDT
Moon 6:20 PM PDT (10/18) 7:02 AM PDT (10/18)
Length of Visible Light 11h 58m
Length of Day
11h 05m
Full, 100% of the Moon is Illuminated
Oct 18
Full
Oct 18
Full
Oct 26
Last Quarter
Nov 3
New
Nov 9
First Quarter

Hourly Weather History & Observations

Time (PDT) Temp. Windchill Dew Point Humidity Pressure Visibility Wind Dir Wind Speed Gust Speed Precip Events Conditions
12:54 AM 46.0 °F - 37.0 °F 71% 29.97 in 10.0 mi Calm Calm - N/A   Clear
1:54 AM 45.0 °F - 39.0 °F 80% 29.98 in 10.0 mi Calm Calm - N/A   Clear
2:54 AM 45.0 °F 43.5 °F 39.0 °F 80% 29.98 in 10.0 mi ESE 3.5 mph - N/A   Clear
3:54 AM 45.0 °F 43.5 °F 39.0 °F 80% 29.98 in 10.0 mi North 3.5 mph - N/A   Clear
4:54 AM 43.0 °F - 37.0 °F 80% 29.99 in 10.0 mi Calm Calm - N/A   Clear
5:54 AM 42.1 °F - 39.9 °F 92% 29.99 in 9.0 mi Calm Calm - N/A   Clear
6:54 AM 42.1 °F - 39.9 °F 92% 29.99 in 9.0 mi Calm Calm - N/A   Clear
7:54 AM 41.0 °F - 41.0 °F 100% 30.01 in 4.0 mi Calm Calm - N/A   Clear
8:54 AM 52.0 °F - 42.1 °F 69% 30.03 in 10.0 mi Calm Calm - N/A   Clear
9:54 AM 57.9 °F - 46.0 °F 65% 30.04 in 10.0 mi Calm Calm - N/A   Clear
10:54 AM 61.0 °F - 48.0 °F 62% 30.04 in 10.0 mi Variable 3.5 mph - N/A   Clear
11:54 AM 66.0 °F - 44.1 °F 45% 30.03 in 10.0 mi SW 5.8 mph - N/A   Clear
12:54 PM 69.1 °F - 48.0 °F 47% 30.01 in 10.0 mi WSW 5.8 mph - N/A   Clear
1:54 PM 72.0 °F - 45.0 °F 38% 29.99 in 10.0 mi SSW 5.8 mph - N/A   Clear
2:54 PM 75.0 °F - 41.0 °F 29% 29.97 in 10.0 mi SSW 8.1 mph - N/A   Clear
3:54 PM 77.0 °F - 39.0 °F 25% 29.96 in 10.0 mi South 6.9 mph - N/A   Clear
4:54 PM 75.9 °F - 39.9 °F 27% 29.96 in 10.0 mi SSW 4.6 mph - N/A   Clear
5:54 PM 70.0 °F - 52.0 °F 53% 29.96 in 10.0 mi SSW 3.5 mph - N/A   Clear
6:54 PM 63.0 °F - 52.0 °F 67% 29.97 in 10.0 mi SSE 4.6 mph - N/A   Clear
7:54 PM 57.9 °F - 48.0 °F 70% 29.98 in 10.0 mi SSE 3.5 mph - N/A   Clear
8:54 PM 60.1 °F - 48.0 °F 64% 29.99 in 10.0 mi South 5.8 mph - N/A   Clear
9:54 PM 54.0 °F - 44.1 °F 69% 30.00 in 10.0 mi SSE 5.8 mph - N/A   Clear
10:54 PM 51.1 °F - 44.1 °F 77% 30.01 in 10.0 mi SE 4.6 mph - N/A   Clear
11:54 PM 48.9 °F - 41.0 °F 74% 30.00 in 10.0 mi SE 3.5 mph - N/A   Clear